Location: Guadanolo
(41.9167°N, 12.9333°E)
Time: 05:09:08
(UTC+00:00)

MONITOR-E - Pass Details

Date: 16 September 2019
Orbit: 347 x 348 km, 97.1° (Epoch: 22 October)

Event Time Altitude Azimuth Distance (km) Brightness Sun altitude
Exits shadow 18:09:05 - 162° (SSE) 1,924 7.3 -10.4°
Reaches altitude 10° 18:10:28 10° 160° (SSE) 1,325 6.5 -10.7°
Maximum altitude 18:13:15 67° 77° (ENE) 389 3.8 -11.2°
Drops below altitude 10° 18:16:05 10° 354° (N) 1,337 7.1 -11.7°
Sets 18:18:01 0° 351° (N) 2,186 8.2 -12.1°
